Wind_Speed
8 9 8 8 7 7 6 6 6 6 6 5 5 4 4 4 3 3 3 4 4 4 5 5 5 5 4 4 3 3 3 3 3 4 4 4 4 5 5 5 6 6 7
7 8 8 8 7 7 6 6 6 6 6 6 5 4 4 4 4 4 4 4 4 4 5 5 5 5 5 4 4 3 3 4 4 4 4 4 4 5 6 7 5 6 6
7 8 8 7 7 7 7 6 6 6 6 6 5 5 5 5 5 4 4 4 4 4 5 5 5 5 5 4 4 3 4 5 5 5 5 6 5 6 7 7 5 5 6
8 8 8 8 7 7 7 7 6 6 6 6 6 5 5 5 5 5 4 4 4 4 5 5 5 5 5 5 5 5 4 5 5 5 5 6 6 5 7 8 6 6 6
9 9 8 8 7 7 7 6 6 6 6 7 6 6 6 6 6 6 5 5 5 6 6 6 6 6 6 5 4 4 5 5 5 5 5 6 6 6 6 7 7 7 7
9 9 9 8 8 8 7 7 6 6 6 7 7 7 6 7 7 7 6 6 6 7 7 7 7 7 7 6 6 5 5 5 5 5 6 7 7 8 8 8 8 8 7
9 10 9 9 8 8 8 7 7 7 7 7 7 7 7 8 7 7 7 7 7 7 8 7 7 8 8 7 7 6 5 6 6 6 6 7 8 8 8 8 8 8 8
10 10 9 9 9 9 8 8 8 8 8 7 7 7 7 7 7 7 7 7 7 7 7 7 7 8 8 7 7 7 7 7 7 6 6 7 7 8 8 9 8 8 8
11 11 10 10 10 9 9 8 8 8 8 8 7 7 7 7 8 8 8 9 9 8 8 8 8 8 8 8 8 7 7 7 7 7 6 7 7 7 7 8 8 9 8
12 11 10 10 10 10 9 9 9 9 8 8 7 7 7 8 8 8 8 9 9 9 9 9 9 8 8 8 8 8 8 7 7 7 7 7 7 7 7 7 8 9 9
12 12 11 10 10 10 9 9 9 9 8 7 7 7 7 7 8 8 9 9 9 9 9 9 9 9 9 10 10 9 9 8 8 7 7 8 8 8 7 8 9 9 10
12 11 11 10 10 10 10 10 9 9 8 8 8 8 8 8 8 8 9 9 9 9 9 9 9 9 9 10 10 10 9 8 8 8 8 8 8 8 9 9 9 10 10
12 11 10 10 10 10 11 10 10 9 9 8 8 8 8 8 9 8 8 9 9 9 9 9 9 9 10 10 11 10 10 9 9 9 9 9 9 10 10 10 11 11 11
11 11 11 11 11 11 11 11 10 10 10 9 9 8 8 8 8 8 8 8 9 9 10 10 10 10 10 10 11 11 10 11 11 11 10 10 11 11 12 11 11 12 12
11 11 12 11 12 12 11 11 10 10 10 9 9 8 8 8 7 8 8 9 9 10 10 10 10 11 11 11 11 12 12 12 12 12 12 12 12 12 12 12 12 12 13
12 12 13 12 12 12 12 11 11 10 9 9 10 9 9 8 7 8 8 9 9 10 10 10 11 11 12 12 13 13 13 13 12 12 12 12 12 12 13 12 12 12 13
12 12 13 13 12 11 11 11 11 11 10 10 10 9 9 8 8 8 8 9 9 10 10 11 11 12 13 13 13 13 13 13 13 13 13 13 13 13 13 13 13 14 15
12 12 13 13 12 11 11 11 11 11 10 10 9 10 9 9 8 9 9 9 10 10 10 11 12 13 13 13 14 14 14 14 14 14 14 14 14 14 14 14 14 15 15
12 12 13 13 11 11 11 11 11 11 10 10 10 9 9 8 9 9 9 9 10 10 11 11 12 13 13 14 14 15 15 15 15 15 14 15 15 15 15 15 15 15 15
13 13 13 13 12 11 11 11 11 10 10 10 10 10 10 9 9 10 10 10 11 11 12 13 13 13 13 14 14 14 15 15 16 16 15 15 17 17 17 17 17 17 17
13 13 13 13 12 11 11 11 11 11 10 11 11 11 11 10 10 10 11 11 12 12 13 13 14 13 13 13 14 14 14 15 16 16 16 17 17 18 18 18 18 18 18
13 13 13 12 12 12 12 12 11 11 11 11 11 11 11 11 12 12 12 12 12 13 13 14 14 14 14 14 14 14 15 15 16 16 17 17 17 17 18 19 19 19 19
12 12 12 12 12 13 13 12 12 11 11 11 11 11 11 12 12 12 13 13 12 12 12 13 14 15 15 15 15 15 16 16 17 17 17 17 18 19 20 20 21 20 20
11 11 12 12 13 13 14 13 13 12 11 11 11 12 12 12 13 13 14 14 13 13 13 13 13 14 15 16 16 16 16 17 17 17 17 18 19 20 20 21 21 21 21
13 13 13 14 13 14 15 14 13 12 12 12 12 12 12 13 13 14 14 14 14 14 15 15 14 15 16 16 16 16 17 17 17 18 18 19 20 20 20 21 22 22 22
13 14 15 15 14 14 15 14 13 13 13 13 13 13 13 14 14 14 15 15 14 14 15 15 16 17 17 17 18 18 18 18 18 18 19 19 19 20 21 22 22 23 23
Wind_Direction
356 359 359 355 352 354 357 358 359 354 349 343 338 332 318 306 296 289 274 258 244 235 228 223 226 230 235 237 229 219 201 198 205 207 190 187 195 199 203 201 194 191 193
351 355 352 351 348 346 345 349 350 348 342 336 332 326 321 314 303 291 280 266 252 246 238 231 233 235 236 233 227 216 213 214 210 213 197 201 215 206 205 198 196 198 200
351 349 345 345 344 342 341 338 337 338 337 333 325 316 312 309 303 296 285 271 259 252 241 235 236 238 247 250 239 228 223 220 210 216 210 206 202 208 214 214 205 213 209
350 349 344 340 336 336 336 335 333 333 333 331 325 314 309 304 300 297 285 274 267 258 243 235 237 240 249 257 251 245 238 232 214 217 219 213 207 214 223 218 222 219 216
347 344 338 334 332 329 327 327 326 325 324 323 319 312 305 299 295 295 287 273 272 264 254 242 240 244 247 251 255 261 244 235 232 228 228 227 227 231 227 223 225 227 224
340 338 332 327 325 323 322 318 316 314 314 314 312 307 299 293 288 286 282 274 275 270 260 250 245 245 247 251 262 267 256 239 242 244 240 235 235 234 229 227 224 222 223
335 334 332 324 322 319 316 313 309 307 310 307 306 301 294 289 283 281 280 275 273 271 262 255 251 250 247 250 256 258 259 250 248 250 245 242 235 233 241 235 230 227 225
328 327 327 322 324 321 314 308 306 304 306 307 306 303 295 286 280 278 277 272 268 267 262 254 252 246 248 252 258 259 260 256 253 256 248 245 240 240 239 235 232 228 223
321 323 321 319 320 323 319 312 308 305 302 303 302 300 293 286 280 276 274 272 265 262 260 259 256 250 251 254 257 261 265 259 255 252 247 242 240 243 238 232 232 229 223
317 318 317 316 318 320 318 313 310 305 303 302 298 293 290 284 278 275 274 270 262 259 256 255 255 252 249 249 251 254 256 254 249 249 247 244 244 242 236 232 232 233 230
313 314 314 313 313 315 315 312 309 303 302 301 295 292 289 286 279 275 272 266 262 258 255 256 257 254 249 248 249 252 253 251 249 248 249 247 246 240 239 237 234 236 234
312 312 310 310 311 311 309 307 303 300 297 296 291 291 290 288 283 275 269 263 260 256 254 254 255 253 250 249 249 251 253 253 253 250 249 246 248 243 241 242 240 242 242
313 313 306 305 305 306 306 304 302 298 293 291 290 291 289 288 286 275 268 261 257 254 253 252 252 249 249 252 252 249 250 254 256 255 250 246 247 245 245 245 242 241 244
314 314 313 308 307 304 302 301 299 292 286 288 290 289 289 288 286 278 264 259 254 253 253 251 250 249 250 251 250 250 252 256 255 255 251 251 252 249 244 240 242 242 243
311 312 314 308 304 302 300 295 297 293 286 285 287 287 290 290 285 277 267 260 257 255 255 253 252 251 249 249 251 251 251 253 256 256 256 254 254 255 246 245 249 250 247
313 311 314 312 304 299 297 292 290 288 281 280 284 284 290 291 280 274 267 263 262 259 258 257 256 253 252 252 251 252 252 254 254 256 257 256 254 256 254 255 250 252 248
313 313 313 313 304 301 297 289 286 282 281 281 281 283 287 287 278 272 269 262 261 262 262 261 258 256 254 253 252 250 251 253 254 255 256 255 257 256 255 255 252 253 253
309 310 310 310 304 300 295 288 286 280 282 283 279 279 282 281 276 275 276 271 265 265 265 263 262 261 257 256 256 253 250 252 253 254 256 255 255 254 256 257 256 257 258
301 305 308 309 302 298 294 289 288 282 282 283 285 284 283 279 278 281 278 278 274 269 268 266 265 264 261 258 256 254 253 252 255 255 256 256 253 253 256 259 260 259 260
297 300 303 306 305 300 298 293 289 283 282 282 284 286 289 290 287 286 284 279 279 276 271 267 267 264 261 259 259 257 257 256 256 257 257 257 254 255 257 262 262 260 260
293 297 299 300 301 298 299 295 290 284 281 283 284 284 286 288 288 287 287 284 280 279 275 269 268 267 264 263 260 258 258 258 256 257 257 259 257 257 258 260 262 263 261
287 291 295 299 300 301 298 297 293 285 284 286 284 283 282 284 284 283 281 284 280 277 275 272 269 269 269 265 262 262 263 261 258 258 258 260 259 260 260 260 261 261 260
286 289 290 292 295 299 297 295 293 290 287 285 283 284 285 285 284 281 280 279 279 276 275 273 271 270 269 266 263 263 263 262 262 260 259 259 260 262 262 261 261 260 261
288 287 290 289 292 296 296 293 291 288 288 285 282 283 282 283 282 281 281 278 277 276 275 275 273 270 267 265 264 264 264 262 262 260 260 260 261 263 263 261 259 260 261
288 290 290 288 290 292 292 292 291 288 288 286 283 282 281 282 282 282 282 279 275 275 276 276 273 272 269 267 266 265 265 263 262 260 259 260 261 263 265 264 263 264 263
287 289 289 288 287 289 288 289 290 288 287 285 283 283 284 283 282 282 281 278 274 275 276 276 275 275 272 269 268 266 265 264 264 262 260 260 261 263 265 265 265 265 265
Height
5889 5888 5887 5887 5886 5885 5885 5884 5883 5883 5882 5882 5881 5880 5880 5880 5879 5879 5878 5878 5878 5878 5878 5878 5878 5878 5878 5878 5878 5878 5878 5878 5878 5878 5877 5877 5876 5875 5875 5875 5875 5876 5878
5889 5888 5887 5886 5886 5885 5884 5884 5883 5882 5882 5881 5881 5880 5880 5879 5879 5878 5878 5878 5877 5877 5877 5877 5877 5877 5878 5878 5878 5878 5878 5878 5878 5877 5877 5877 5876 5876 5876 5876 5877 5877 5879
5889 5888 5887 5886 5885 5885 5884 5883 5883 5882 5881 5881 5880 5880 5879 5878 5878 5878 5878 5877 5877 5877 5877 5877 5876 5877 5877 5877 5877 5877 5877 5877 5877 5877 5877 5877 5877 5877 5876 5876 5877 5878 5879
5888 5887 5887 5886 5885 5884 5883 5882 5882 5881 5881 5880 5880 5879 5878 5878 5877 5877 5877 5876 5876 5876 5876 5876 5876 5876 5876 5876 5876 5876 5876 5877 5876 5877 5876 5877 5877 5877 5876 5876 5877 5877 5878
5888 5887 5886 5885 5884 5883 5883 5882 5881 5880 5880 5879 5879 5878 5878 5877 5877 5876 5876 5876 5875 5875 5875 5875 5875 5875 5875 5875 5875 5875 5875 5875 5875 5876 5876 5876 5876 5877 5877 5876 5876 5877 5878
5887 5886 5885 5884 5883 5882 5882 5881 5880 5879 5879 5878 5877 5877 5876 5876 5876 5875 5875 5875 5874 5874 5874 5874 5874 5874 5874 5874 5875 5875 5875 5874 5874 5875 5875 5876 5876 5876 5876 5876 5877 5877 5878
5887 5886 5884 5883 5882 5881 5880 5880 5879 5878 5877 5877 5876 5876 5875 5875 5874 5874 5874 5874 5873 5873 5872 5873 5873 5873 5873 5873 5874 5874 5874 5874 5874 5874 5874 5875 5875 5875 5875 5876 5876 5876 5877
5886 5885 5883 5882 5881 5880 5879 5878 5878 5877 5876 5875 5875 5874 5873 5873 5873 5872 5872 5872 5872 5872 5871 5871 5871 5871 5871 5872 5872 5872 5872 5873 5873 5872 5873 5873 5874 5874 5874 5875 5875 5876 5876
5885 5884 5882 5881 5880 5878 5878 5877 5876 5875 5874 5873 5873 5873 5872 5871 5871 5870 5870 5870 5870 5870 5870 5870 5870 5870 5870 5871 5871 5871 5871 5871 5871 5871 5871 5872 5872 5872 5872 5873 5874 5874 5875
5883 5882 5881 5879 5878 5877 5876 5875 5874 5873 5872 5872 5871 5871 5870 5869 5869 5868 5868 5868 5868 5868 5868 5868 5868 5869 5869 5869 5869 5870 5870 5870 5870 5870 5870 5870 5871 5871 5871 5872 5872 5873 5874
5882 5880 5879 5878 5877 5876 5875 5873 5872 5871 5871 5870 5869 5868 5868 5867 5866 5866 5866 5866 5866 5866 5866 5867 5867 5867 5867 5867 5867 5868 5868 5868 5868 5869 5869 5869 5869 5870 5870 5870 5871 5872 5872
5880 5878 5877 5876 5875 5874 5873 5872 5870 5870 5869 5868 5867 5866 5866 5865 5865 5864 5864 5864 5864 5864 5864 5865 5865 5865 5865 5865 5866 5866 5866 5867 5867 5867 5868 5868 5868 5868 5868 5869 5870 5870 5871
5877 5876 5875 5874 5873 5872 5871 5870 5869 5868 5867 5866 5865 5864 5864 5863 5863 5862 5862 5862 5862 5862 5862 5863 5863 5863 5863 5863 5863 5864 5864 5865 5865 5865 5866 5866 5866 5867 5867 5867 5867 5868 5869
5875 5874 5872 5871 5870 5869 5868 5867 5866 5865 5865 5864 5863 5863 5862 5861 5860 5860 5859 5859 5860 5860 5860 5860 5860 5861 5861 5861 5861 5861 5862 5862 5863 5863 5863 5864 5864 5865 5865 5865 5864 5865 5866
5873 5872 5870 5869 5868 5867 5866 5864 5864 5863 5862 5862 5861 5861 5860 5859 5858 5858 5857 5857 5857 5857 5857 5858 5858 5858 5858 5858 5859 5859 5859 5860 5860 5861 5861 5862 5862 5862 5863 5863 5863 5864 5864
5871 5869 5868 5866 5865 5864 5863 5862 5862 5861 5860 5860 5859 5859 5858 5857 5857 5856 5855 5855 5855 5855 5855 5855 5855 5855 5855 5855 5856 5856 5856 5857 5857 5858 5859 5859 5859 5859 5860 5860 5860 5861 5861
5868 5867 5865 5864 5862 5861 5860 5860 5859 5859 5858 5858 5857 5856 5856 5855 5854 5853 5853 5852 5852 5852 5852 5852 5852 5852 5852 5852 5852 5853 5853 5853 5854 5855 5855 5856 5856 5856 5857 5857 5858 5858 5858
5866 5865 5863 5861 5860 5859 5858 5857 5857 5856 5856 5855 5854 5853 5853 5852 5851 5851 5850 5850 5849 5849 5849 5849 5848 5848 5848 5849 5849 5849 5850 5850 5851 5851 5851 5852 5853 5853 5854 5854 5855 5855 5856
5864 5863 5861 5859 5858 5856 5855 5855 5854 5853 5853 5852 5851 5851 5850 5849 5848 5848 5847 5847 5847 5846 5846 5846 5845 5845 5845 5845 5845 5845 5846 5846 5847 5847 5848 5848 5849 5850 5850 5850 5851 5851 5852
5861 5860 5858 5857 5855 5854 5853 5852 5851 5850 5850 5849 5848 5848 5847 5846 5845 5845 5844 5844 5843 5843 5842 5842 5842 5841 5841 5841 5842 5842 5842 5842 5843 5843 5844 5844 5845 5846 5846 5846 5847 5847 5848
5858 5857 5856 5854 5853 5852 5851 5850 5848 5847 5847 5846 5845 5845 5844 5843 5842 5842 5841 5841 5840 5839 5839 5838 5838 5838 5838 5838 5838 5838 5838 5838 5839 5839 5840 5840 5841 5841 5842 5842 5842 5843 5843
5855 5854 5853 5852 5850 5849 5848 5847 5845 5845 5844 5843 5842 5841 5840 5840 5839 5838 5838 5837 5836 5835 5835 5834 5834 5834 5834 5834 5834 5834 5834 5835 5834 5835 5835 5835 5836 5836 5837 5837 5838 5838 5838
5851 5851 5850 5849 5848 5846 5845 5844 5843 5841 5840 5839 5839 5838 5837 5836 5835 5834 5834 5833 5832 5831 5831 5830 5829 5829 5829 5829 5829 5830 5830 5830 5830 5830 5830 5830 5831 5831 5832 5832 5832 5832 5833
5848 5848 5847 5846 5845 5844 5842 5841 5839 5838 5837 5836 5835 5834 5833 5832 5831 5830 5829 5828 5827 5827 5826 5826 5825 5825 5824 5824 5824 5824 5825 5825 5825 5825 5825 5825 5826 5826 5826 5826 5826 5827 5827
5845 5845 5844 5843 5842 5841 5839 5838 5836 5835 5833 5832 5831 5830 5829 5828 5827 5826 5825 5824 5823 5822 5822 5821 5821 5820 5820 5819 5819 5819 5819 5819 5819 5820 5820 5820 5820 5820 5820 5820 5820 5821 5821
5842 5841 5840 5839 5838 5837 5836 5834 5833 5831 5830 5828 5827 5826 5825 5824 5822 5821 5820 5819 5818 5817 5817 5816 5815 5815 5814 5814 5814 5813 5813 5813 5814 5814 5814 5815 5815 5815 5814 5814 5814 5814 5814